SCP
0 0 0 0 0 0 0 0 0 0 0 0 0 0 0 0 0 0 0 0 0 0
0 0 0 0 0 0 0 0 0 0 0 0 0 0 0 0 0 0 0 0 0 0
0 0 0 0 0 0 0 0 0 0 0 0 0 0 0 0 0 0 0 0 0 0
0 0 0 0 0 0 0 0 0 0 0 0 0 0 0 0 0 0 0 0 0 0
0 0 0 0 0 0 0 0 0 0 0 0 0 0 0 0 0 0 0 0 0 0
0 0 0 0 0 0 0 0 0 0 0 0 0 0 0 0 0 0 0 0 0 0
0 0 0 0 0 0 0 0 0 0 0 0 0 0 0 0 0 0 0 0 0 0
0 0 0 0 0 0 0 0 0 0 0 0 0 0 0 0 0 0 0 0 0 0
0 0 0 0 0 0 0 0 0 0 0 0 0 0 0 0 0 0 0 0 0 0
0 0 0 0 0 0 0 0 0 0 0 0 0 0 0 0 0 0 0 0 0 0
0 0 0 0 0 0 0 0 0 0 0 0 0 0 0 0 0 0 0 0 0 0
0 0 0 0 0 0 0 0 0 0 0 0 0 0 0 0 0 0 0 0 0 0
0 0 0 0 0 0 0 0 0 0 0 0 0 0 0 0 0 0 0 0 0 0
0 0 0 0 0 0 0 0 0 0 0 0 0 0 0 0 0 0 0 0 0 0
Wind_Speed_500mb
36 33 31 27 27 27 26 26 28 32 35 38 41 43 45 46 47 48 51 53 55 57
41 39 34 32 34 34 31 31 33 36 39 42 45 47 49 50 52 53 55 58 60 62
45 41 38 37 38 37 35 35 38 40 42 45 48 50 53 55 56 59 60 63 66 67
48 44 42 43 40 37 38 40 43 45 48 50 51 54 57 59 60 63 66 65 70 71
52 47 48 47 42 39 43 45 47 49 52 54 55 57 61 62 63 67 70 70 72 74
57 53 52 49 46 46 49 50 51 53 54 56 59 61 62 65 67 70 71 71 74 74
59 55 54 50 49 51 52 53 53 55 56 57 59 62 64 68 70 74 74 73 75 74
58 56 54 54 51 52 53 53 54 56 57 58 62 65 67 71 75 76 76 77 75 76
60 56 55 54 52 52 51 52 55 57 58 60 63 66 67 72 74 75 78 78 76 78
63 60 57 52 51 50 50 53 55 56 59 61 64 66 69 69 71 74 75 77 79 82
63 59 54 51 50 49 51 52 52 55 61 63 64 65 65 66 69 73 74 75 78 81
58 54 50 50 48 49 50 49 54 58 60 60 59 60 62 64 69 71 72 74 76 76
53 50 50 47 48 47 47 52 54 54 55 56 56 57 61 63 64 69 72 76 78 72
51 49 47 46 44 43 47 49 50 51 49 51 55 58 60 60 58 59 66 75 80 76
Wind_Direction_500mb
241 247 252 257 269 277 287 297 302 307 312 316 320 323 323 325 326 329 329 328 323 320
243 247 256 260 264 273 280 292 294 302 307 310 311 311 312 314 317 320 321 320 320 316
244 249 255 261 265 274 281 286 291 297 301 302 304 305 305 309 312 313 314 315 316 315
244 249 255 262 269 276 282 287 289 293 294 297 300 303 303 306 307 309 309 311 311 312
248 248 253 261 270 277 282 285 289 291 292 296 297 300 302 302 304 305 307 308 308 309
250 251 256 263 270 273 278 283 286 289 292 293 296 297 299 300 301 304 305 305 305 307
249 253 258 263 267 272 274 279 286 289 292 294 295 297 299 300 302 303 302 302 303 307
247 251 254 257 264 269 272 278 285 290 292 293 295 297 299 301 301 300 301 302 306 307
246 250 251 254 260 268 270 277 285 289 290 292 294 296 297 298 298 300 302 304 305 304
242 245 247 252 259 265 272 280 284 287 289 290 291 293 296 297 298 299 301 302 304 304
241 244 244 249 258 267 275 279 283 285 286 289 292 294 296 298 297 298 300 303 303 302
239 239 242 252 262 270 275 280 282 285 288 290 293 296 299 298 298 299 302 303 302 305
229 233 245 256 265 270 277 281 283 287 289 293 299 300 300 299 301 304 303 304 307 311
224 235 247 256 263 273 278 282 286 287 293 298 300 301 302 303 305 305 305 304 307 311
Wind_Speed_850mb
36 33 31 27 27 27 26 26 28 32 35 38 41 43 45 46 47 48 51 53 55 57
41 39 34 32 34 34 31 31 33 36 39 42 45 47 49 50 52 53 55 58 60 62
45 41 38 37 38 37 35 35 38 40 42 45 48 50 53 55 56 59 60 63 66 67
48 44 42 43 40 37 38 40 43 45 48 50 51 54 57 59 60 63 66 65 70 71
52 47 48 47 42 39 43 45 47 49 52 54 55 57 61 62 63 67 70 70 72 74
57 53 52 49 46 46 49 50 51 53 54 56 59 61 62 65 67 70 71 71 74 74
59 55 54 50 49 51 52 53 53 55 56 57 59 62 64 68 70 74 74 73 75 74
58 56 54 54 51 52 53 53 54 56 57 58 62 65 67 71 75 76 76 77 75 76
60 56 55 54 52 52 51 52 55 57 58 60 63 66 67 72 74 75 78 78 76 78
63 60 57 52 51 50 50 53 55 56 59 61 64 66 69 69 71 74 75 77 79 82
63 59 54 51 50 49 51 52 52 55 61 63 64 65 65 66 69 73 74 75 78 81
58 54 50 50 48 49 50 49 54 58 60 60 59 60 62 64 69 71 72 74 76 76
53 50 50 47 48 47 47 52 54 54 55 56 56 57 61 63 64 69 72 76 78 72
51 49 47 46 44 43 47 49 50 51 49 51 55 58 60 60 58 59 66 75 80 76
Wind_Direction_850mb
241 247 252 257 269 277 287 297 302 307 312 316 320 323 323 325 326 329 329 328 323 320
243 247 256 260 264 273 280 292 294 302 307 310 311 311 312 314 317 320 321 320 320 316
244 249 255 261 265 274 281 286 291 297 301 302 304 305 305 309 312 313 314 315 316 315
244 249 255 262 269 276 282 287 289 293 294 297 300 303 303 306 307 309 309 311 311 312
248 248 253 261 270 277 282 285 289 291 292 296 297 300 302 302 304 305 307 308 308 309
250 251 256 263 270 273 278 283 286 289 292 293 296 297 299 300 301 304 305 305 305 307
249 253 258 263 267 272 274 279 286 289 292 294 295 297 299 300 302 303 302 302 303 307
247 251 254 257 264 269 272 278 285 290 292 293 295 297 299 301 301 300 301 302 306 307
246 250 251 254 260 268 270 277 285 289 290 292 294 296 297 298 298 300 302 304 305 304
242 245 247 252 259 265 272 280 284 287 289 290 291 293 296 297 298 299 301 302 304 304
241 244 244 249 258 267 275 279 283 285 286 289 292 294 296 298 297 298 300 303 303 302
239 239 242 252 262 270 275 280 282 285 288 290 293 296 299 298 298 299 302 303 302 305
229 233 245 256 265 270 277 281 283 287 289 293 299 300 300 299 301 304 303 304 307 311
224 235 247 256 263 273 278 282 286 287 293 298 300 301 302 303 305 305 305 304 307 311